Temp
-7 -7 -7 -6 -7 -6 -7 -7 -6 -6 -6 -7 -7 -7 -7 -7 -7 -6 -6 -7 -7 -7 -7 -7 -7 -7 -8 -8 -8 -8 -8 -8 -8 -8 -8 -7 -7 -7 -7 -7 -7 -7 -7
-7 -7 -7 -6 -6 -7 -7 -6 -6 -6 -6 -6 -7 -7 -7 -7 -6 -6 -6 -6 -7 -7 -7 -7 -8 -8 -8 -8 -8 -8 -7 -7 -7 -7 -7 -7 -7 -6 -7 -7 -6 -7 -7
-7 -6 -6 -6 -6 -6 -6 -6 -6 -6 -7 -7 -7 -7 -7 -7 -7 -7 -7 -7 -7 -7 -8 -8 -8 -8 -9 -8 -8 -8 -8 -7 -7 -7 -7 -7 -7 -6 -7 -7 -6 -7 -7
-6 -6 -6 -6 -6 -6 -6 -6 -7 -7 -7 -7 -7 -7 -7 -7 -7 -7 -7 -7 -7 -7 -8 -8 -8 -8 -9 -9 -9 -9 -8 -8 -7 -8 -8 -8 -7 -7 -7 -7 -7 -6 -6
-6 -6 -6 -6 -6 -6 -7 -7 -7 -7 -7 -7 -7 -7 -8 -8 -8 -8 -8 -8 -8 -8 -8 -8 -9 -9 -9 -9 -9 -9 -9 -9 -8 -9 -8 -9 -8 -7 -7 -7 -7 -6 -7
-7 -7 -7 -7 -7 -7 -7 -7 -7 -7 -8 -8 -8 -8 -8 -8 -8 -8 -9 -9 -9 -9 -9 -9 -9 -9 -9 -9 -9 -8 -9 -10 -10 -9 -8 -8 -8 -7 -7 -6 -6 -7 -6
-7 -7 -7 -7 -7 -7 -7 -7 -7 -7 -8 -8 -8 -8 -8 -9 -9 -9 -9 -9 -10 -10 -10 -10 -10 -10 -9 -9 -9 -9 -9 -9 -9 -9 -9 -8 -8 -8 -7 -7 -6 -7 -7
-7 -7 -7 -7 -7 -8 -8 -8 -8 -8 -8 -8 -9 -9 -9 -9 -9 -9 -10 -10 -10 -10 -10 -10 -10 -10 -10 -10 -10 -9 -9 -9 -9 -9 -9 -8 -9 -8 -8 -8 -7 -6 -7
-7 -7 -7 -8 -8 -8 -8 -8 -9 -9 -9 -9 -9 -9 -9 -10 -10 -10 -10 -10 -10 -10 -10 -10 -10 -10 -10 -10 -10 -10 -10 -10 -9 -9 -9 -9 -9 -9 -9 -8 -8 -7 -7
-8 -8 -8 -8 -8 -9 -9 -9 -9 -9 -9 -9 -9 -9 -10 -10 -10 -10 -10 -11 -11 -10 -10 -10 -10 -10 -10 -10 -10 -10 -10 -10 -9 -9 -9 -9 -9 -9 -9 -9 -9 -8 -8
-8 -8 -8 -9 -9 -9 -9 -9 -9 -9 -9 -9 -9 -9 -9 -10 -10 -11 -10 -11 -11 -11 -11 -11 -11 -11 -10 -10 -10 -10 -10 -10 -10 -10 -10 -10 -10 -10 -9 -9 -9 -9 -9
-9 -9 -9 -9 -9 -9 -9 -9 -9 -9 -9 -9 -10 -10 -10 -10 -10 -10 -10 -11 -11 -11 -11 -11 -12 -11 -11 -11 -11 -10 -10 -10 -10 -10 -10 -10 -10 -10 -10 -10 -9 -9 -9
-9 -9 -9 -9 -9 -9 -10 -10 -10 -10 -10 -10 -10 -10 -11 -10 -10 -10 -10 -11 -11 -11 -11 -12 -12 -12 -12 -12 -11 -11 -11 -11 -10 -10 -10 -10 -10 -10 -10 -10 -10 -9 -9
-9 -9 -10 -10 -10 -10 -10 -10 -10 -10 -11 -11 -11 -11 -11 -11 -11 -11 -11 -11 -11 -12 -12 -12 -12 -12 -12 -12 -12 -12 -11 -11 -11 -10 -10 -10 -10 -10 -10 -10 -10 -10 -9
-10 -10 -10 -10 -10 -10 -10 -10 -11 -11 -11 -11 -11 -11 -11 -11 -12 -12 -12 -12 -13 -13 -13 -13 -13 -13 -13 -13 -12 -12 -12 -11 -11 -11 -11 -10 -10 -10 -10 -10 -10 -10 -10
-10 -10 -10 -10 -10 -11 -11 -11 -11 -11 -11 -12 -12 -12 -12 -12 -13 -13 -13 -13 -14 -13 -14 -14 -14 -14 -13 -13 -13 -13 -12 -12 -11 -11 -11 -11 -10 -10 -10 -10 -10 -10 -10
-10 -10 -10 -11 -11 -11 -11 -11 -11 -12 -12 -12 -12 -13 -13 -14 -14 -14 -14 -14 -15 -14 -14 -14 -14 -14 -14 -14 -13 -13 -13 -12 -12 -12 -11 -11 -11 -11 -11 -10 -10 -10 -10
-11 -11 -11 -11 -11 -11 -11 -11 -12 -12 -13 -13 -13 -14 -14 -15 -15 -15 -15 -15 -15 -15 -15 -14 -14 -14 -14 -14 -13 -13 -13 -13 -13 -12 -12 -12 -12 -12 -12 -12 -12 -11 -11
-11 -11 -11 -11 -11 -11 -12 -12 -13 -13 -13 -14 -14 -15 -15 -15 -15 -15 -15 -15 -15 -15 -15 -15 -15 -15 -15 -14 -14 -14 -14 -14 -14 -14 -14 -14 -14 -14 -13 -13 -13 -13 -12
-11 -11 -11 -11 -11 -12 -12 -13 -13 -14 -14 -15 -15 -15 -15 -15 -16 -16 -16 -16 -15 -15 -15 -15 -15 -15 -15 -14 -14 -14 -14 -14 -14 -14 -14 -14 -14 -14 -14 -14 -14 -13 -13
-11 -11 -11 -12 -12 -12 -13 -14 -14 -15 -15 -15 -16 -16 -16 -16 -16 -16 -16 -16 -16 -15 -15 -15 -15 -14 -14 -13 -13 -13 -13 -13 -13 -13 -14 -14 -14 -14 -14 -14 -14 -13 -13
-11 -11 -11 -12 -13 -13 -14 -15 -15 -15 -16 -16 -16 -16 -16 -17 -16 -16 -15 -15 -15 -15 -14 -14 -14 -14 -14 -14 -14 -14 -14 -14 -14 -14 -14 -14 -14 -14 -14 -14 -14 -14 -14
-12 -11 -12 -13 -13 -14 -15 -15 -16 -16 -16 -16 -16 -16 -16 -16 -15 -15 -15 -15 -14 -14 -14 -15 -15 -14 -14 -14 -14 -14 -14 -14 -14 -14 -14 -15 -15 -15 -15 -15 -15 -14 -14
-12 -12 -13 -13 -14 -15 -15 -16 -16 -16 -16 -16 -16 -16 -15 -15 -15 -15 -14 -14 -14 -14 -14 -14 -14 -14 -14 -14 -14 -14 -14 -14 -14 -15 -15 -15 -16 -15 -15 -15 -15 -15 -15
-12 -13 -13 -14 -15 -15 -16 -16 -16 -16 -16 -16 -16 -15 -15 -15 -14 -14 -14 -14 -14 -14 -14 -14 -14 -14 -14 -14 -14 -14 -14 -14 -14 -15 -15 -16 -16 -16 -15 -15 -15 -15 -15
-13 -13 -13 -14 -15 -16 -16 -16 -16 -16 -16 -16 -15 -15 -14 -14 -14 -14 -14 -14 -14 -14 -14 -14 -14 -13 -14 -14 -14 -13 -14 -14 -14 -15 -15 -16 -16 -16 -16 -15 -15 -15 -14
Height
5883 5880 5878 5878 5875 5872 5869 5867 5865 5863 5860 5858 5856 5852 5849 5847 5844 5841 5838 5834 5832 5828 5828 5831 5832 5833 5834 5834 5835 5835 5836 5838 5839 5840 5840 5841 5840 5840 5840 5839 5839 5839 5838
5878 5876 5874 5872 5871 5868 5865 5863 5861 5859 5856 5853 5850 5846 5843 5841 5838 5836 5833 5831 5827 5825 5824 5826 5826 5827 5827 5826 5826 5826 5827 5829 5831 5832 5832 5834 5833 5833 5834 5835 5835 5836 5835
5873 5872 5870 5868 5867 5865 5862 5859 5856 5852 5849 5845 5842 5840 5838 5836 5833 5829 5828 5826 5825 5823 5822 5822 5820 5820 5819 5817 5815 5816 5815 5816 5819 5820 5821 5823 5824 5825 5827 5828 5830 5831 5832
5870 5867 5865 5863 5861 5858 5855 5852 5850 5847 5844 5841 5837 5834 5830 5827 5825 5824 5822 5820 5819 5818 5817 5816 5817 5815 5812 5809 5807 5806 5805 5805 5804 5806 5810 5812 5815 5816 5818 5820 5821 5822 5824
5865 5862 5859 5857 5855 5852 5849 5846 5843 5840 5837 5834 5831 5827 5823 5819 5816 5814 5812 5811 5809 5809 5808 5807 5806 5804 5804 5804 5802 5798 5797 5795 5794 5794 5798 5800 5803 5806 5809 5810 5812 5813 5814
5861 5858 5855 5852 5849 5846 5842 5838 5834 5831 5828 5826 5822 5819 5816 5813 5810 5807 5803 5802 5801 5799 5798 5797 5796 5794 5793 5792 5791 5790 5789 5789 5787 5787 5787 5789 5791 5795 5799 5801 5801 5802 5804
5856 5853 5849 5846 5843 5839 5836 5832 5827 5824 5820 5817 5814 5810 5807 5804 5802 5799 5797 5794 5790 5788 5787 5786 5785 5784 5782 5780 5778 5778 5777 5777 5778 5780 5780 5780 5782 5782 5785 5788 5791 5792 5794
5848 5845 5842 5838 5834 5830 5826 5822 5818 5814 5810 5807 5804 5801 5798 5795 5792 5789 5787 5783 5781 5779 5776 5775 5773 5772 5770 5769 5767 5766 5765 5764 5765 5767 5769 5769 5770 5771 5772 5773 5777 5780 5782
5841 5837 5834 5829 5825 5821 5817 5813 5809 5805 5801 5798 5794 5790 5788 5784 5780 5777 5774 5771 5768 5765 5763 5762 5760 5759 5757 5756 5755 5754 5753 5751 5751 5753 5755 5755 5756 5757 5758 5759 5761 5764 5768
5833 5829 5825 5821 5816 5812 5808 5804 5800 5796 5792 5788 5784 5780 5777 5773 5769 5766 5762 5758 5754 5751 5749 5747 5745 5744 5742 5741 5740 5740 5740 5738 5738 5738 5739 5740 5740 5742 5744 5745 5747 5750 5753
5825 5821 5817 5812 5807 5802 5799 5795 5791 5787 5783 5778 5774 5770 5766 5762 5758 5753 5749 5745 5742 5738 5735 5732 5729 5727 5726 5724 5723 5723 5723 5724 5724 5724 5724 5724 5725 5726 5728 5729 5731 5735 5738
5816 5812 5808 5803 5798 5794 5790 5786 5782 5778 5774 5769 5764 5760 5755 5751 5745 5740 5737 5733 5729 5725 5721 5718 5715 5711 5709 5707 5706 5705 5704 5705 5706 5707 5708 5708 5709 5709 5711 5714 5715 5718 5720
5808 5803 5798 5793 5789 5785 5781 5777 5772 5768 5763 5759 5754 5748 5742 5737 5732 5728 5724 5719 5714 5710 5706 5702 5698 5695 5693 5690 5688 5687 5687 5687 5687 5687 5688 5689 5690 5692 5693 5695 5696 5699 5701
5798 5794 5789 5784 5780 5776 5771 5767 5762 5757 5752 5746 5740 5735 5730 5724 5718 5712 5706 5701 5695 5691 5687 5683 5680 5677 5675 5673 5671 5669 5668 5667 5668 5668 5669 5670 5671 5673 5675 5676 5677 5678 5681
5790 5785 5780 5776 5772 5767 5762 5756 5752 5745 5739 5734 5729 5722 5716 5708 5702 5695 5689 5683 5677 5672 5668 5663 5660 5656 5654 5652 5650 5649 5649 5648 5648 5649 5650 5651 5651 5652 5654 5654 5657 5659 5662
5781 5776 5772 5767 5763 5757 5752 5745 5739 5733 5727 5720 5713 5705 5699 5691 5684 5677 5671 5665 5658 5653 5649 5645 5641 5637 5635 5633 5631 5629 5628 5628 5627 5628 5629 5629 5630 5631 5632 5633 5635 5638 5640
5772 5768 5764 5759 5753 5747 5740 5733 5727 5720 5712 5705 5697 5689 5681 5674 5667 5660 5654 5648 5641 5636 5631 5627 5623 5619 5617 5615 5613 5612 5610 5608 5607 5607 5607 5607 5608 5609 5611 5612 5613 5616 5619
5765 5760 5755 5749 5744 5736 5729 5722 5715 5707 5699 5690 5683 5676 5668 5659 5652 5644 5637 5632 5626 5619 5613 5609 5605 5601 5599 5597 5595 5593 5591 5590 5588 5587 5587 5586 5586 5587 5589 5590 5591 5593 5596
5758 5752 5747 5741 5733 5725 5718 5710 5702 5694 5686 5677 5669 5661 5653 5645 5636 5628 5619 5612 5607 5601 5596 5592 5588 5585 5582 5580 5578 5577 5575 5575 5573 5572 5573 5573 5572 5572 5573 5573 5574 5576 5578
5749 5744 5738 5730 5722 5714 5706 5699 5690 5681 5673 5665 5657 5649 5640 5631 5622 5614 5605 5597 5592 5588 5584 5581 5578 5575 5572 5569 5567 5565 5564 5562 5562 5561 5561 5560 5560 5560 5560 5560 5560 5561 5563
5742 5735 5728 5720 5712 5704 5696 5687 5679 5671 5663 5655 5645 5636 5626 5616 5608 5601 5595 5589 5584 5581 5578 5574 5570 5566 5563 5560 5557 5555 5552 5550 5548 5547 5546 5546 5545 5545 5545 5545 5546 5548 5550
5734 5726 5718 5709 5702 5694 5686 5679 5671 5663 5654 5644 5634 5624 5615 5607 5600 5594 5588 5583 5579 5574 5570 5566 5562 5558 5554 5551 5548 5544 5541 5538 5535 5533 5531 5529 5528 5528 5527 5527 5529 5532 5535
5724 5716 5709 5702 5695 5687 5679 5670 5662 5653 5643 5633 5623 5616 5608 5601 5595 5588 5583 5578 5573 5569 5564 5560 5556 5552 5548 5545 5541 5537 5534 5529 5526 5522 5519 5517 5515 5515 5515 5516 5517 5520 5523
5716 5709 5703 5695 5687 5679 5670 5661 5652 5643 5633 5624 5616 5609 5602 5596 5590 5584 5578 5573 5568 5564 5561 5557 5553 5548 5544 5539 5535 5531 5526 5522 5518 5513 5509 5505 5503 5503 5504 5506 5509 5512 5516
5709 5703 5695 5687 5679 5671 5662 5653 5644 5634 5625 5616 5609 5604 5598 5592 5586 5580 5574 5570 5565 5562 5558 5553 5548 5543 5538 5532 5527 5522 5518 5513 5509 5504 5499 5495 5493 5494 5495 5498 5501 5504 5508
5703 5696 5689 5681 5673 5664 5655 5646 5636 5627 5619 5612 5606 5600 5594 5588 5582 5577 5572 5568 5564 5560 5554 5548 5542 5535 5528 5522 5515 5510 5506 5504 5501 5497 5493 5489 5487 5487 5490 5493 5496 5500 5504
Wind_Speed
13 11 14 16 18 18 19 22 24 25 26 27 26 26 24 23 25 26 27 17 19 21 23 27 16 15 16 21 25 27 27 28 24 23 25 22 21 21 19 16 15 14 25
15 13 13 16 18 21 24 27 26 26 27 28 27 25 27 26 27 28 25 20 22 23 25 26 18 29 28 26 28 28 31 31 31 29 29 29 28 27 25 21 20 16 14
16 16 17 17 18 21 23 24 26 27 28 29 30 31 30 30 27 27 27 25 24 21 17 25 24 33 29 32 32 32 32 33 38 33 31 29 31 31 29 26 24 23 20
21 20 21 22 23 25 27 29 30 31 33 34 34 34 34 33 32 29 25 25 26 26 26 26 26 35 30 29 25 30 32 32 31 35 36 32 33 32 30 30 27 25 24
23 24 24 26 27 29 30 31 32 33 34 35 34 34 35 35 35 34 33 29 28 27 28 30 31 34 35 32 27 33 31 28 28 27 30 32 34 32 31 30 29 26 26
23 23 24 25 27 29 30 32 34 35 35 35 35 35 34 34 34 33 34 33 31 30 29 31 33 35 35 35 34 38 36 34 29 28 30 32 33 30 30 32 32 31 31
23 23 24 26 27 29 31 33 34 36 37 37 37 37 36 34 33 33 33 34 36 36 36 37 37 38 39 40 39 39 38 37 38 38 36 34 33 34 32 33 34 34 34
23 25 26 29 30 31 32 33 34 35 36 36 36 36 37 36 36 35 34 36 37 40 41 41 42 42 41 42 42 42 42 42 41 40 40 43 41 40 41 41 39 39 39
26 28 30 31 31 33 34 34 34 35 36 37 38 38 38 38 39 38 37 37 38 40 41 43 44 44 43 43 42 43 42 43 44 42 42 42 42 42 42 44 43 44 43
30 32 32 34 34 34 34 35 35 36 37 37 37 38 39 39 39 39 40 40 41 42 43 43 42 42 43 44 43 42 42 44 45 44 43 42 43 44 43 44 43 44 43
32 33 33 34 34 34 34 33 32 32 33 34 34 35 36 37 39 40 42 43 44 44 44 45 45 44 44 44 45 45 43 42 44 46 45 45 45 45 46 46 46 46 46
33 34 34 33 33 33 33 32 33 33 35 37 38 39 40 39 40 42 43 44 44 45 45 45 45 46 47 46 46 46 47 46 46 46 47 47 48 49 49 49 49 49 47
35 35 34 33 34 33 33 34 35 37 39 40 41 41 41 42 44 47 48 49 49 49 48 47 48 49 49 49 49 49 49 49 49 49 49 49 50 51 52 52 53 53 52
35 34 34 34 33 34 35 35 38 40 41 41 43 45 48 51 54 55 54 54 55 55 54 54 54 53 52 52 51 52 52 52 51 51 51 51 51 51 51 53 53 54 54
35 34 33 33 34 36 38 40 41 41 43 46 48 52 55 56 55 55 57 58 59 59 58 57 56 56 55 55 54 53 53 53 53 53 53 53 54 54 55 56 55 55 56
33 32 32 35 37 39 42 42 43 46 49 52 53 54 54 56 56 56 55 54 55 54 53 53 52 52 51 51 52 52 52 53 53 52 52 53 54 54 55 56 57 57 58
32 33 36 38 40 42 42 45 48 51 52 52 54 54 53 54 54 54 52 51 51 52 52 51 52 52 50 50 50 51 51 52 53 53 54 55 56 57 58 59 60 60 60
33 37 38 40 41 43 46 49 50 50 50 50 50 51 51 52 51 51 51 53 52 51 50 49 47 45 45 45 46 46 47 48 49 50 50 49 48 48 49 50 51 53 56
35 37 39 41 44 47 48 48 47 48 49 51 51 50 51 52 54 55 55 54 51 48 46 44 41 40 39 37 36 35 36 36 37 37 35 35 37 38 39 40 40 39 41
35 38 42 44 46 46 46 46 47 49 49 49 51 52 53 53 51 50 48 43 38 35 33 29 28 29 29 30 30 29 29 29 29 31 34 37 37 38 40 38 38 38 39
38 42 43 44 43 44 45 47 46 47 49 51 51 53 52 49 45 37 33 31 28 28 26 25 25 28 28 28 29 32 33 34 35 35 37 38 39 39 40 43 42 43 41
42 42 44 43 43 46 46 45 46 48 49 50 52 49 45 37 31 28 27 26 25 26 27 28 29 29 27 23 21 23 24 26 30 33 35 36 33 31 31 35 39 40 38
40 42 41 42 44 44 43 45 47 48 49 51 47 41 30 28 28 28 27 27 27 26 26 25 19 16 19 23 25 25 26 27 27 29 29 29 28 27 25 22 24 26 28
39 38 40 40 42 43 44 46 47 49 50 46 38 28 27 29 28 29 27 25 25 22 20 18 20 21 22 25 25 25 25 26 26 28 29 30 27 25 24 24 24 23 25
35 37 38 40 42 43 45 44 48 49 44 35 28 26 29 29 30 28 26 23 20 20 22 24 25 27 29 30 31 32 31 30 27 27 22 19 20 20 18 19 21 21 25
34 36 38 41 43 44 44 48 48 42 35 29 27 28 29 29 28 24 20 20 22 25 29 31 34 38 38 39 41 38 34 27 24 24 17 13 12 12 15 15 17 15 17
Wind_Direction
314 299 296 297 293 294 298 310 314 311 308 306 310 313 316 316 316 319 324 309 307 314 244 239 257 276 281 271 264 266 269 261 257 259 267 264 261 260 258 255 259 271 237
308 302 295 298 295 295 298 305 307 306 306 308 312 312 314 315 313 315 315 312 312 297 271 256 285 293 285 288 277 270 270 258 248 246 246 254 257 260 258 251 254 251 232
306 303 301 299 299 299 300 303 306 308 310 311 311 310 309 308 306 305 306 302 299 292 279 284 293 288 289 286 268 274 275 273 258 251 253 249 252 251 256 251 246 247 242
305 306 307 306 303 302 302 303 305 306 306 306 304 301 300 300 300 297 291 286 284 283 275 272 258 271 282 293 278 272 277 278 275 253 249 254 252 249 247 251 245 242 249
305 307 307 305 304 304 304 305 304 303 303 303 302 301 301 300 299 298 297 292 287 279 276 275 274 274 274 277 274 274 283 275 271 266 256 253 253 246 246 250 253 248 244
303 302 301 301 302 303 303 304 304 303 302 301 300 299 298 295 294 294 293 293 290 286 281 277 276 276 276 275 272 270 275 269 259 257 253 253 256 253 244 245 244 247 247
299 300 301 301 301 301 300 298 299 299 299 299 299 298 297 294 292 289 287 284 283 282 282 282 281 280 278 277 277 274 272 267 264 253 257 252 254 258 255 248 244 244 246
302 301 302 303 305 306 305 305 304 302 301 300 300 299 298 297 293 290 286 282 279 277 276 274 272 272 272 272 273 272 272 270 267 262 256 259 259 254 252 253 250 248 245
307 307 307 307 308 306 305 304 302 300 299 298 297 296 296 294 292 292 290 287 284 280 276 273 273 272 270 267 265 267 268 267 267 265 260 258 255 253 251 250 250 247 242
307 308 307 307 307 306 304 304 303 302 300 299 298 297 296 296 296 295 293 291 287 285 284 282 279 276 274 272 269 265 263 262 263 262 261 259 257 255 253 252 251 250 246
306 306 307 306 304 304 304 302 301 301 300 302 302 301 299 297 296 294 291 290 288 287 288 287 285 281 277 274 272 269 266 263 262 261 262 262 260 258 257 257 254 251 248
305 305 306 305 304 303 300 301 302 302 302 302 301 300 299 298 293 293 293 291 290 288 286 285 283 282 281 278 275 273 270 268 265 263 262 260 260 260 260 258 256 255 252
306 307 306 306 304 301 301 301 301 303 304 304 302 299 296 294 297 297 294 289 287 285 284 282 280 279 278 277 276 274 271 269 268 266 265 262 261 261 262 261 261 260 258
307 307 307 305 302 301 302 302 302 303 303 301 299 297 297 299 299 297 293 291 289 287 284 281 279 277 275 274 274 273 271 271 269 267 265 263 262 261 259 259 258 259 259
307 306 304 303 302 301 303 303 305 303 300 301 300 298 298 297 297 295 293 291 290 288 288 287 285 283 280 278 275 273 272 270 268 267 266 265 265 263 262 260 259 258 258
304 304 303 303 304 306 307 306 304 304 304 303 303 301 300 298 297 296 295 294 292 291 290 288 286 283 281 279 278 276 273 272 271 270 269 268 266 264 262 262 260 258 257
305 306 306 307 309 309 309 308 308 306 306 305 305 305 304 302 301 300 299 298 296 294 292 289 285 282 280 279 276 275 274 273 273 272 271 270 268 266 264 262 261 259 257
308 309 310 311 311 310 310 309 309 309 309 309 307 306 306 305 304 301 300 298 296 295 293 292 288 285 283 280 277 276 275 273 272 271 271 270 269 267 265 262 260 257 255
309 313 313 312 311 312 313 312 312 312 312 312 313 313 311 308 306 304 302 300 298 296 295 294 292 289 287 285 282 279 277 274 271 270 268 268 267 265 265 263 259 257 254
314 315 314 313 315 315 315 315 315 316 317 317 315 314 311 309 308 307 305 305 305 302 302 304 304 305 302 297 293 291 289 285 278 272 272 272 272 266 264 263 259 257 256
316 317 316 318 318 318 318 318 317 318 318 318 317 316 316 317 315 313 312 313 314 316 318 314 308 304 303 300 297 294 290 286 281 278 275 275 273 268 264 259 256 254 254
317 318 320 321 322 320 319 317 319 320 320 320 321 322 322 320 320 324 325 323 321 318 316 315 314 311 311 317 321 317 310 300 291 284 280 278 273 271 269 261 254 251 248
321 322 323 323 321 319 319 320 322 324 324 324 324 326 325 328 330 330 328 326 325 324 322 321 323 330 332 322 318 318 317 314 307 301 296 287 277 271 263 258 248 243 236
321 323 324 325 324 323 324 326 327 326 326 327 330 333 333 336 337 336 334 332 331 332 333 330 326 323 322 321 317 313 312 313 311 303 296 290 284 271 259 251 242 237 235
323 326 330 330 328 327 328 329 329 327 330 334 338 338 338 338 337 338 338 337 337 332 327 323 321 322 321 318 313 311 312 312 310 313 305 294 279 262 250 239 233 237 227
327 333 334 333 332 332 330 329 330 332 337 340 339 339 340 336 340 341 345 343 337 333 329 325 320 320 318 315 314 311 302 300 306 312 307 300 293 255 229 221 215 217 216